Torna al catalogo

STARLINK-38019

AttivoComunicazioniSSO
NORAD 69762·PAYLOAD·🇺🇸 United States

Lanciato Jul 2, 2026 da Vandenberg Space Force Base

Loading…

Prossimi Passaggi (prossime 24 ore)

TLE

AggiornatoSource: CelesTrak SupGP

Epoca: Sep 15, 2026, 03:27 UTC

1 69762C 26150Z   26258.14423611 -.01877700  00000+0 -15971-1 0  2582
2 69762  97.2850  99.5947 0001667  86.3946 336.0681 15.70560852    19

Traccia STARLINK-38019 in tempo reale con AllMySat

Download on the App Store